Location: México DF
(19.4326°N, 99.1332°W)
Time: 02:42:14
(UTC+00:00)

ISS - Pass Details

Date: 07 May 2026
Orbit: 414 x 424 km, 51.6° (Epoch: 15 May)

Event Time Altitude Azimuth Distance (km) Brightness Sun altitude
Rises 10:44:57 0° 347° (NNW) 2,356 0.2 -18.3°
Reaches altitude 10° 10:48:11 10° 21° (NNE) 1,494 -0.3 -17.6°
Maximum altitude 10:49:30 12° 45° (NE) 1,389 -0.1 -17.3°
Drops below altitude 10° 10:50:49 10° 68° (ENE) 1,495 0.4 -17.0°
Sets 10:54:03 0° 102° (ESE) 2,360 1.0 -16.3°
